FREGAT DEB, 45902

Orbit data source: Space-Track

FREGAT DEB, 45902 is space debris in LEO originally from a launch on Mon, 18 Jul 2011 UTC launched from the Tyuratam Missile And Space Complex (TTMTR). Debris objects in space refer to the collection of defunct objects orbiting the Earth. Examples of debris include non-operational satellites, rocket bodies, and fragments generated from explosions, collisions, or faulty payload assembly.

Loading next visibility...
Identifier
45902, 2011-037DX
Orbit
LEO
Country
Flag of CISCIS
Related business
Manufacturer
Lavochkin
Mission
Spacecraft
Bus & Motor
Unknown
Mass
Unknown
Launch date (UTC)
2011-07-18 (15 years ago)
Launch vehicle
Unknown
Launch site
Tyuratam Missile And Space Complex (TTMTR)
Object type
Payload
Rocket body
Debris
Shape & HBR
Unknown shape, 0.1 m
Radar Cross Section
Small (<0.1 m²)

Expand to show TLE details & history
Last TLE update: 14 hours ago

TLE from 14 hours ago
0 FREGAT DEB
1 45902U 11037DX  26256.31798902  .00008260  00000-0  13088-2 0  9990
2 45902  51.4327 300.9837 1505822  50.0421 322.3271 12.14108161262565
Epoch: 2026-09-13T07:37Z
TLE epoch observation values (Epoch: 2026-09-13T07:37:54.251Z)
Latitude
-0.00004°
Longitude
-165.80674°
Altitude
747.241 km
Speed
7.879 km/s
True Right ascension
20h 03m 56s
True Declination
0° 00' 00"
Sunlit
Object was in full shadow at epoch
Visualization orbit readout
Latitude
Unknown
Longitude
Unknown
Altitude
Unknown
Speed
Unknown
Apparent Right ascension
Unknown
Apparent Declination
Unknown
Sunlit
N/A
Visualization observer readout
Local Sidereal Time
14:16:45
Azimuth
Unknown
Elevation
Unknown
Doppler factor
Unknown
Orbital elements
Apogee altitude
2,822.98 km
Perigee altitude
414.591 km
Semi-major axis
7,996.922 km
Eccentricity
0.15058
Inclination
51.4327°
RAAN
300.9837°
Arg. of periapsis
50.0421°
True anomaly
310.04696°
Mean anomaly
322.3271°
Eccentric anomaly
316.37447°
Mean motion
3.035 °/min
Orbital period
118.62 mins
BSTAR
0.0013088
Loading maneuver chart data...
Computing Atmospheric mass density...
Loading historical data...
Loading historical data...
Loading historical data...
Loading historical data...
Loading historical data...
Loading historical data...
Loading historical data...

Documentation

Showing up to 5 results
|